Location: Capel Gartheli
(52.1833°N, 4.0667°W)
Time: 20:26:30
(UTC+00:00)

STARLINK-1129 - Pass Details

Date: 18 February 2020
Orbit: 549 x 550 km, 53.0° (Epoch: 03 April)

Event Time Altitude Azimuth Distance (km) Brightness Sun altitude
Exits shadow 05:55:50 26° 281° (W) 1,100 4.5 -14.6°
Maximum altitude 05:58:06 82° 5° (N) 552 3.6 -14.2°
Drops below altitude 10° 06:02:12 10° 96° (E) 1,803 7.7 -13.6°
Sets 06:04:25 0° 97° (E) 2,694 9.2 -13.2°
